User: anonymous   Login
Location: Unspecified
(0.0000°N, 0.0000°E)
Time: 14:43:13
(UTC+00:00)
Language:

N. Korean satellite - Orbit

View from above orbital plane
View from above orbital plane
View from above satellite
View from above satellite

Ground track
Ground track

The orbit data is extracted from the following two-line orbital elements,

1 39026U 12072A   18290.96539740 +.00001585 +00000-0 +61188-4 0  9992
2 39026 097.2113 297.1825 0037150 246.2897 113.4443 15.27117763324338
Epoch (UTC): 17 October 2018 23:10:10
Eccentricity: 0.0037150
inclination: 97.2113°
perigee height: 459 km
apogee height: 510 km
right ascension of ascending node: 297.1825°
argument of perigee: 246.2897°
revolutions per day: 15.27117763
mean anomaly at epoch: 113.4443°
orbit number at epoch: 32433

The dashed part of the orbit path shows where the satellite is in the earth's shadow,  

DLR